[[{"header":{"parameterUnit":"m.s-1","parameterCategory":2,"la1":30.2991,"la2":30.254,"lo1":-89.0895,"lo2":-89.0444,"dy":0.0017,"dx":0.0017,"nx":28,"ny":28,"refTime":"2025-07-19T03:00:00:Z","depth":"0","parameterNumber":2,"parameterNumberName":"U-component_of_CURRENTS"},"data":[0,0,0,0,0,0,0,0,0,0,0,0,0,0,0,0,0,0,0,0,0,0,0,0,0,0,0,0,0,0,0,0,0,0,0,0,0,0,0,0,0,0,0,0,0,0,0,0,0,0,0,0,0,0,0,0,0,0,0.2856,0.2857,0,0.2905,0.2905,0.2905,0.2929,0.2929,0.2929,0.293,0.2919,0.2918,0.2918,0,0,0,0,0,0,0,0,0,0,0,0,0,0.2766,0.2767,0.2856,0.2857,0.2858,0.2905,0.2905,0.2905,0.2929,0.2929,0.293,0.293,0.2919,0.2918,0.2918,0,0,0,0,0,0,0,0,0,0,0,0,0,0.2805,0.2768,0.2856,0.2879,0.2881,0.2905,0.2905,0.2905,0.2929,0.2929,0.293,0.293,0.2919,0.2918,0.2917,0.29,0,0,0.2915,0.2914,0,0,0,0,0,0,0,0,0.2803,0.2808,0.2874,0.2877,0.288,0.2915,0.287,0.2902,0.2928,0.2906,0.293,0.2931,0.2914,0.2914,0.2917,0.29,0.2899,0.2914,0.2914,0.2913,0.2913,0,0,0,0,0,0,0,0.28,0.2806,0.2871,0.2875,0.2879,0.2881,0.2886,0.2876,0.2902,0.2908,0.2911,0.2923,0.2915,0.2917,0.2916,0.2899,0.2914,0.2914,0.2913,0.2913,0.2872,0.2872,0,0,0,0,0,0,0.2803,0.2803,0.287,0.2873,0.2847,0.2882,0.2889,0.29,0.2904,0.2906,0.2923,0.2924,0.2919,0.2918,0.2916,0.2899,0.2913,0.2913,0.2912,0.2873,0.2872,0.2872,0,0,0,0,0,0,0.2801,0.2808,0.2868,0.2842,0.2851,0.2884,0.2896,0.2901,0.2906,0.2916,0.2917,0.2925,0.2919,0.2917,0.2911,0.2899,0.2912,0.2911,0.2874,0.2873,0.2872,0.2862,0,0,0,0,0,0,0.2798,0.2807,0.2812,0.2843,0.2853,0.2881,0.2896,0.2901,0.2915,0.2917,0.2918,0.2918,0.292,0.2913,0.291,0.2897,0.2911,0.2874,0.2873,0.2872,0.2863,0.2861,0.286,0,0,0,0,0,0.2794,0.2803,0.2811,0.282,0.2859,0.2882,0.2886,0.2908,0.2915,0.2915,0.2918,0.2918,0.2905,0.2912,0.2909,0.2895,0.2875,0.2873,0.2872,0.2864,0.2862,0.286,0,0,0,0,0,0,0.2776,0.2807,0.2817,0.2837,0.2857,0.2887,0.2893,0.2906,0.2909,0.2909,0.2913,0.2913,0.2904,0.2899,0.2906,0.2881,0.2888,0.2887,0.2883,0.2881,0.2879,0.291,0.291,0,0,0,0,0,0.2772,0.278,0.2813,0.2828,0.2837,0.2862,0.2873,0.2888,0.29,0.2903,0.2904,0.2901,0.2895,0.2889,0.2885,0.2868,0.2976,0.2857,0.2855,0.2854,0.2877,0.3042,0.306,0.2868,0.2868,0.2868,0,0,0.2772,0.2789,0.2796,0.2824,0.2839,0.2851,0.2869,0.2885,0.289,0.2898,0.2897,0.2896,0.2891,0.2879,0.2873,0.2873,0.2968,0.2852,0.2851,0.2876,0.3044,0.3063,0.3081,0.2867,0.2868,0.2868,0,0,0.278,0.2787,0.28,0.2808,0.2833,0.2843,0.2846,0.2871,0.2875,0.2873,0.2882,0.2883,0.2864,0.2869,0.2865,0.2849,0.2957,0.2836,0.2848,0.3007,0.3026,0.3044,0.3233,0.3267,0.283,0.283,0.283,0,0.2784,0.2804,0.2807,0.2818,0.2831,0.2837,0.2855,0.2851,0.2869,0.2889,0.2869,0.2891,0.2863,0.2884,0.2863,0.2847,0.2982,0.2855,0.3011,0.3031,0.3049,0.3239,0.3277,0.2829,0.2829,0.2829,0.2829,0,0.2806,0.2815,0.282,0.2832,0.2836,0.2852,0.2852,0.2857,0.2856,0.2874,0.2899,0.288,0.2917,0.2876,0.2852,0.2946,0.3018,0.3,0.3028,0.3069,0.3265,0.3306,0.2828,0.2829,0.2829,0.2829,0,0,0.2859,0.2841,0.2845,0.2866,0.2849,0.2876,0.2857,0.2885,0.2946,0.2908,0.3001,0.2919,0.2955,0.2954,0.294,0.3021,0.3234,0.3059,0.3068,0.3269,0.3653,0.3669,0.3716,0.3271,0.3277,0.3282,0.3749,0,0.289,0.291,0.2883,0.2913,0.2939,0.2918,0.2927,0.2943,0.2971,0.3057,0.3027,0.3104,0.2974,0.3034,0.3082,0.3219,0.3338,0.3113,0.3564,0.3578,0.3606,0.376,0.3655,0.4059,0.3789,0.3796,0.3801,0,0.2949,0.2952,0.2981,0.3003,0.3015,0.3035,0.3107,0.312,0.3191,0.3225,0.3267,0.329,0.337,0.3281,0.3529,0.3412,0.3534,0.3616,0.3637,0.3686,0.3669,0.3967,0.4144,0.399,0.3864,0.3859,0.3854,0,0.3041,0.3041,0.3072,0.3074,0.3085,0.3121,0.3142,0.3199,0.3225,0.3392,0.3458,0.356,0.3654,0.3795,0.3864,0.3775,0.4184,0.4101,0.4235,0.424,0.4254,0.4248,0.4352,0.4328,0.4327,0.4326,0.4325,0,0.311,0.3143,0.3138,0.3166,0.3228,0.3234,0.3324,0.3372,0.3456,0.355,0.3582,0.3688,0.3791,0.3965,0.4037,0.4279,0.4345,0.4309,0.4379,0.4245,0.4233,0.4178,0.4039,0.4344,0.434,0.4336,0.4333,0,0.32,0.3191,0.3242,0.3268,0.3277,0.3345,0.3361,0.3441,0.3535,0.3677,0.3737,0.3865,0.4135,0.4226,0.4527,0.4527,0.464,0.4805,0.4644,0.4683,0.4627,0.449,0.4588,0.4462,0.51,0.5104,0.5107,0,0.3221,0.3266,0.3305,0.3319,0.3332,0.339,0.3424,0.3484,0.3567,0.3772,0.3869,0.4129,0.429,0.4704,0.4836,0.5088,0.481,0.5106,0.4868,0.4674,0.4576,0.4332,0.4196,0.4917,0.4918,0.4919,0.492,0,0.3244,0.3285,0.3301,0.3346,0.3393,0.3408,0.3486,0.3529,0.3664,0.3784,0.3997,0.4151,0.4558,0.4762,0.5062,0.5159,0.4854,0.5133,0.4988,0.4503,0.4197,0.409,0.4569,0.4928,0.4927,0.4926,0.4926,0.4926,0.3224,0.3245,0.3276,0.3313,0.336,0.3398,0.3397,0.3505,0.3597,0.3762,0.4011,0.4212,0.4586,0.4987,0.5072,0.5105,0.497,0.4977,0.4867,0.467,0.4395,0.4898,0.5263,0.5264,0.5265,0.5266,0.5267,0,0.3132,0.3162,0.3212,0.3237,0.3265,0.3316,0.3392,0.3387,0.3472,0.3718,0.3888,0.4232,0.45,0.4739,0.4935,0.4829,0.4613,0.4694,0.4295,0.4202,0.4759,0.4588,0.4751,0.4752,0.4752,0.4752,0.4752,0.4752,0.3066,0.3074,0.3114,0.3102,0.3132,0.3117,0.3132,0.3177,0.3299,0.3461,0.3628,0.3863,0.4218,0.4554,0.4551,0.4471,0.408,0.4001,0.3903,0.4238,0.4251,0.4264,0.4072,0.4125,0.4124,0.3234,0.3227,0.3222]},{"header":{"parameterUnit":"m.s-1","parameterCategory":2,"la1":30.2991,"la2":30.254,"lo1":-89.0895,"lo2":-89.0444,"dy":0.0017,"dx":0.0017,"nx":28,"ny":28,"refTime":"2025-07-19T03:00:00:Z","depth":"0","parameterNumber":3,"parameterNumberName":"V-component_of_CURRENTS"},"data":[0,0,0,0,0,0,0,0,0,0,0,0,0,0,0,0,0,0,0,0,0,0,0,0,0,0,0,0,0,0,0,0,0,0,0,0,0,0,0,0,0,0,0,0,0,0,0,0,0,0,0,0,0,0,0,0,0,0,-0.1179,-0.118,0,-0.1265,-0.1266,-0.1267,-0.1298,-0.1298,-0.1298,-0.1298,-0.1398,-0.14,-0.1403,0,0,0,0,0,0,0,0,0,0,0,0,0,-0.1049,-0.1051,-0.1179,-0.118,-0.1181,-0.1264,-0.1266,-0.1267,-0.1298,-0.1298,-0.1298,-0.1298,-0.1397,-0.14,-0.1404,0,0,0,0,0,0,0,0,0,0,0,0,0,-0.1117,-0.1052,-0.1179,-0.1207,-0.121,-0.1264,-0.1266,-0.1267,-0.1299,-0.1298,-0.1298,-0.1297,-0.1395,-0.14,-0.1404,-0.1439,0,0,-0.1417,-0.1419,0,0,0,0,0,0,0,0,-0.1113,-0.1121,-0.1202,-0.1205,-0.1209,-0.1271,-0.1256,-0.1325,-0.1299,-0.1265,-0.1298,-0.1297,-0.1357,-0.1364,-0.1381,-0.1443,-0.1448,-0.1418,-0.142,-0.1422,-0.1423,0,0,0,0,0,0,0,-0.1108,-0.1118,-0.1213,-0.1203,-0.1207,-0.1218,-0.1227,-0.127,-0.1312,-0.1268,-0.127,-0.128,-0.1359,-0.1377,-0.1383,-0.1449,-0.1418,-0.1421,-0.1424,-0.1426,-0.1556,-0.1557,0,0,0,0,0,0,-0.1098,-0.1114,-0.121,-0.1215,-0.1159,-0.122,-0.123,-0.1251,-0.1311,-0.132,-0.1281,-0.1282,-0.1369,-0.1378,-0.1387,-0.1415,-0.1422,-0.1426,-0.1429,-0.1555,-0.1556,-0.1557,0,0,0,0,0,0,-0.1095,-0.1107,-0.1206,-0.1166,-0.1179,-0.1223,-0.1246,-0.1253,-0.1272,-0.1321,-0.133,-0.1292,-0.1369,-0.1381,-0.1425,-0.142,-0.1428,-0.1432,-0.1554,-0.1556,-0.1557,-0.1482,0,0,0,0,0,0,-0.1092,-0.1105,-0.1117,-0.1165,-0.1181,-0.1238,-0.1246,-0.1255,-0.1279,-0.1281,-0.1334,-0.1343,-0.137,-0.1418,-0.1429,-0.1426,-0.1436,-0.1553,-0.1555,-0.1556,-0.1483,-0.148,-0.1478,0,0,0,0,0,-0.1087,-0.1104,-0.1117,-0.1129,-0.1196,-0.1239,-0.1248,-0.1277,-0.1279,-0.1291,-0.1324,-0.1341,-0.1437,-0.1423,-0.1435,-0.1433,-0.1552,-0.1554,-0.1556,-0.1484,-0.1481,-0.1478,0,0,0,0,0,0,-0.1048,-0.1111,-0.1126,-0.116,-0.1196,-0.1244,-0.1257,-0.1277,-0.1313,-0.1313,-0.1353,-0.1365,-0.1403,-0.1437,-0.142,-0.1479,-0.1497,-0.1502,-0.1439,-0.1436,-0.1433,-0.1356,-0.1439,0,0,0,0,0,-0.1047,-0.1079,-0.1131,-0.1156,-0.1172,-0.1214,-0.1234,-0.1256,-0.1293,-0.1308,-0.1345,-0.1387,-0.1423,-0.1442,-0.1486,-0.1517,-0.1454,-0.1527,-0.1524,-0.1522,-0.147,-0.1367,-0.1347,-0.1564,-0.1564,-0.1563,0,0,-0.1035,-0.1075,-0.109,-0.115,-0.1177,-0.1195,-0.1225,-0.1255,-0.1262,-0.1315,-0.1338,-0.1383,-0.1433,-0.1465,-0.1484,-0.1488,-0.1432,-0.1524,-0.1521,-0.147,-0.1367,-0.1344,-0.1325,-0.1565,-0.1565,-0.1564,0,0,-0.1019,-0.1064,-0.1079,-0.111,-0.1156,-0.1185,-0.1192,-0.1243,-0.1257,-0.1294,-0.1327,-0.1352,-0.143,-0.144,-0.146,-0.147,-0.1425,-0.151,-0.1425,-0.1327,-0.1305,-0.1286,-0.1176,-0.1147,-0.1503,-0.1502,-0.1502,0,-0.0992,-0.1022,-0.1086,-0.1104,-0.1107,-0.1174,-0.1166,-0.1206,-0.1263,-0.1237,-0.1293,-0.1329,-0.1402,-0.1376,-0.1401,-0.1455,-0.1384,-0.1428,-0.1313,-0.1293,-0.1274,-0.1166,-0.1135,-0.1499,-0.15,-0.15,-0.15,0,-0.0985,-0.1004,-0.1012,-0.1052,-0.1072,-0.1081,-0.1132,-0.1144,-0.1172,-0.1182,-0.1171,-0.1253,-0.124,-0.1307,-0.1369,-0.1286,-0.1272,-0.1319,-0.13,-0.1246,-0.1139,-0.1107,-0.1494,-0.1496,-0.1497,-0.1497,0,0,-0.0904,-0.0986,-0.0979,-0.0958,-0.1034,-0.1023,-0.1046,-0.1031,-0.0954,-0.1051,-0.0935,-0.107,-0.1067,-0.1089,-0.1159,-0.1122,-0.0979,-0.1166,-0.1163,-0.1018,-0.0724,-0.0745,-0.0713,-0.0992,-0.0987,-0.0982,-0.0699,0,-0.0853,-0.0848,-0.0913,-0.0871,-0.0854,-0.0907,-0.0885,-0.0884,-0.0882,-0.0799,-0.0865,-0.0809,-0.0998,-0.0956,-0.0956,-0.095,-0.0894,-0.1049,-0.0831,-0.0823,-0.0816,-0.0677,-0.072,-0.0473,-0.0668,-0.0663,-0.0659,0,-0.0794,-0.0794,-0.0751,-0.0713,-0.0701,-0.0684,-0.0579,-0.0571,-0.0513,-0.0494,-0.0467,-0.0498,-0.0465,-0.0627,-0.0557,-0.0637,-0.0666,-0.0691,-0.068,-0.069,-0.0785,-0.0564,-0.0409,-0.068,-0.0611,-0.0615,-0.0619,0,-0.0644,-0.0652,-0.0593,-0.0594,-0.0589,-0.0531,-0.0503,-0.0449,-0.0372,-0.0257,-0.0151,-0.0147,-0.0075,-0.012,-0.0238,-0.0349,-0.013,-0.0278,-0.0316,-0.0317,-0.0303,-0.0312,-0.0343,-0.0188,-0.0189,-0.019,-0.0191,0,-0.054,-0.0478,-0.0502,-0.0463,-0.0321,-0.0363,-0.0188,-0.0154,-0.0047,0.0108,0.0045,0.0184,0.0058,0.0116,-0.0039,-0.0041,0.0046,-0.0225,-0.022,-0.0286,-0.0297,-0.0496,-0.0668,-0.0179,-0.0181,-0.0184,-0.0185,0,-0.0377,-0.0415,-0.0324,-0.0286,-0.0254,-0.0135,-0.0022,0.0107,0.0194,0.0409,0.0466,0.0522,0.0598,0.0471,0.0461,0.0269,0.0102,0.0192,0.0124,0.0114,-0.0243,-0.0409,-0.0336,-0.0447,0.0231,0.0233,0.0234,0,-0.0289,-0.0241,-0.0169,-0.0103,-0.0078,0.0062,0.016,0.0233,0.0365,0.0604,0.0736,0.0875,0.096,0.0955,0.0691,0.0546,0.0232,0.0372,0.0109,-0.0195,-0.0374,-0.0501,-0.0612,0.0167,0.0168,0.0168,0.0169,0,-0.0122,-0.0106,-0.0045,0.0077,0.0185,0.032,0.0463,0.059,0.0715,0.0896,0.1133,0.1234,0.1228,0.1094,0.0881,0.0679,0.0157,0.0375,0.0101,-0.0366,-0.0533,-0.0662,-0.0095,0.0174,0.0173,0.0173,0.0173,0.0172,0.0007,0.0082,0.0131,0.0263,0.0382,0.0538,0.0673,0.0823,0.1036,0.1322,0.1399,0.163,0.1403,0.1098,0.0794,0.0207,0.0189,-0.0039,-0.0183,-0.0258,-0.0471,0.0109,0.0327,0.0328,0.0328,0.0328,0.0329,0,0.0129,0.0179,0.0303,0.0434,0.0578,0.0616,0.0842,0.0989,0.1229,0.1532,0.1739,0.1822,0.1411,0.0969,0.0226,-0.0256,-0.0495,-0.0536,-0.0766,-0.0833,-0.0258,-0.038,-0.0354,-0.0354,-0.0354,-0.0354,-0.0353,-0.0353,0.0188,0.0294,0.0339,0.056,0.0667,0.0878,0.1007,0.1235,0.1482,0.1864,0.2098,0.2255,0.1913,0.0436,-0.061,-0.0856,-0.1256,-0.1289,-0.1452,-0.1164,-0.1132,-0.1102,-0.1259,-0.1418,-0.1419,-0.2005,-0.2011,-0.2016]}],[{"header":{"parameterUnit":"m.s-1","parameterCategory":2,"la1":30.2991,"la2":30.254,"lo1":-89.0895,"lo2":-89.0444,"dy":0.0017,"dx":0.0017,"nx":28,"ny":28,"refTime":"2025-07-19T03:00:00:Z","depth":"2","parameterNumber":2,"parameterNumberName":"U-component_of_CURRENTS"},"data":[0,0,0,0,0,0,0,0,0,0,0,0,0,0,0,0,0,0,0,0,0,0,0,0,0,0,0,0,0,0,0,0,0,0,0,0,0,0,0,0,0,0,0,0,0,0,0,0,0,0,0,0,0,0,0,0,0,0,0.2155,0.2156,0,0.2223,0.2223,0.2224,0.2366,0.2368,0.2371,0.2374,0.2426,0.2425,0.2423,0,0,0,0,0,0,0,0,0,0,0,0,0,0.216,0.2159,0.2155,0.2156,0.2157,0.2223,0.2224,0.2224,0.2365,0.2369,0.2372,0.2375,0.2426,0.2425,0.2423,0,0,0,0,0,0,0,0,0,0,0,0,0,0.2186,0.2159,0.2155,0.2235,0.2242,0.2222,0.2224,0.2225,0.2364,0.2369,0.2373,0.2377,0.2427,0.2425,0.2423,0.2328,0,0,0.2418,0.2417,0,0,0,0,0,0,0,0,0.2184,0.2186,0.2222,0.2229,0.2238,0.229,0.2244,0.2258,0.2363,0.2319,0.2374,0.2379,0.2375,0.2378,0.2382,0.233,0.2332,0.2417,0.2416,0.2415,0.2415,0,0,0,0,0,0,0,0.2182,0.2184,0.2183,0.2223,0.2232,0.2271,0.2279,0.2248,0.2323,0.2323,0.2333,0.2338,0.238,0.2384,0.2384,0.2333,0.2417,0.2416,0.2415,0.2414,0.2405,0.2406,0,0,0,0,0,0,0.2167,0.2181,0.218,0.2185,0.222,0.2267,0.2277,0.2269,0.2324,0.2336,0.2335,0.2345,0.2385,0.2386,0.2387,0.2473,0.2415,0.2414,0.2413,0.2404,0.2405,0.2406,0,0,0,0,0,0,0.2167,0.2166,0.2178,0.2185,0.219,0.2263,0.2253,0.2268,0.2307,0.2333,0.2346,0.2363,0.2388,0.2389,0.24,0.2468,0.2413,0.2411,0.2403,0.2404,0.2405,0.2518,0,0,0,0,0,0,0.2166,0.2165,0.2159,0.2183,0.2189,0.2196,0.225,0.2267,0.2302,0.2316,0.2359,0.2367,0.2392,0.2403,0.2398,0.2465,0.241,0.2402,0.2404,0.2405,0.2513,0.2523,0.2531,0,0,0,0,0,0.2166,0.2157,0.2158,0.2159,0.2176,0.2196,0.2203,0.227,0.2299,0.2319,0.2351,0.2368,0.2412,0.24,0.2395,0.2464,0.2401,0.2403,0.2405,0.2509,0.2521,0.2531,0,0,0,0,0,0,0.216,0.217,0.2173,0.2167,0.2187,0.2222,0.2248,0.2266,0.2303,0.2334,0.235,0.2359,0.2414,0.2389,0.2376,0.2463,0.2418,0.2419,0.2499,0.251,0.2519,0.2501,0.2408,0,0,0,0,0,0.2144,0.2149,0.2156,0.2157,0.2167,0.2198,0.2214,0.2258,0.2287,0.2312,0.2329,0.236,0.2404,0.2419,0.244,0.2444,0.2479,0.249,0.2499,0.2507,0.2487,0.2608,0.2628,0.2412,0.2412,0.2412,0,0,0.2144,0.2149,0.2153,0.2157,0.2182,0.2221,0.2222,0.2266,0.2317,0.2302,0.2368,0.2386,0.2411,0.2468,0.2488,0.2462,0.2594,0.251,0.2517,0.2492,0.2613,0.2634,0.2654,0.2414,0.2413,0.2413,0,0,0.2165,0.2148,0.2171,0.2192,0.2229,0.2248,0.2259,0.2292,0.2333,0.2368,0.2405,0.2439,0.2471,0.2516,0.2543,0.2587,0.2644,0.2612,0.264,0.276,0.278,0.2797,0.2909,0.2936,0.2612,0.2612,0.2612,0,0.2168,0.2187,0.2182,0.2221,0.2248,0.2264,0.2309,0.2345,0.2381,0.2401,0.2416,0.2493,0.2505,0.2592,0.2622,0.2615,0.2689,0.2609,0.2778,0.2795,0.2811,0.2921,0.2949,0.2618,0.2617,0.2616,0.2616,0,0.2217,0.224,0.226,0.2313,0.2337,0.2378,0.2419,0.2448,0.2482,0.2513,0.2588,0.2604,0.2652,0.2676,0.2663,0.278,0.2801,0.279,0.2761,0.2841,0.295,0.2978,0.2626,0.2624,0.2622,0.262,0,0,0.2192,0.2278,0.2284,0.2328,0.239,0.2416,0.249,0.2542,0.261,0.2641,0.273,0.2769,0.2766,0.2789,0.2794,0.2863,0.3046,0.2868,0.2872,0.2997,0.3335,0.3151,0.3163,0.3092,0.3096,0.31,0.3381,0,0.2232,0.2318,0.2347,0.2437,0.2483,0.2518,0.2588,0.2645,0.2699,0.2787,0.2814,0.291,0.2824,0.2881,0.2931,0.3034,0.3116,0.297,0.3218,0.3225,0.3068,0.3186,0.2915,0.3124,0.3408,0.3412,0.3415,0,0.2259,0.2315,0.2405,0.2503,0.2527,0.2586,0.2683,0.2751,0.2863,0.2917,0.2981,0.303,0.3128,0.3064,0.3249,0.3176,0.3245,0.3303,0.3316,0.3109,0.3088,0.3079,0.3163,0.346,0.3457,0.3453,0.3451,0,0.2236,0.2344,0.2416,0.2453,0.2571,0.2617,0.2679,0.2781,0.2857,0.3015,0.3109,0.3212,0.3313,0.341,0.3465,0.3417,0.3681,0.3649,0.3544,0.3535,0.3322,0.3283,0.3786,0.3786,0.3785,0.3784,0.3783,0,0.2249,0.2302,0.2418,0.246,0.2553,0.263,0.2742,0.2818,0.2967,0.3067,0.3173,0.3281,0.3409,0.3544,0.3579,0.3634,0.3787,0.3563,0.3595,0.3352,0.3313,0.3591,0.3565,0.3795,0.3792,0.379,0.3789,0,0.2204,0.2287,0.2373,0.2502,0.2547,0.261,0.2768,0.2837,0.3001,0.315,0.3221,0.3412,0.3572,0.3666,0.3859,0.3775,0.3862,0.3836,0.352,0.3503,0.3619,0.3596,0.3796,0.3792,0.3789,0.3786,0.3783,0,0.2188,0.2229,0.2376,0.2416,0.2474,0.2586,0.2647,0.2826,0.2908,0.319,0.3254,0.3486,0.3555,0.3759,0.3715,0.3777,0.3846,0.353,0.3329,0.361,0.3623,0.3604,0.3585,0.3148,0.3141,0.3134,0.313,0,0.2129,0.2186,0.2245,0.2343,0.2415,0.2512,0.2626,0.2707,0.2909,0.3053,0.3237,0.3342,0.3497,0.341,0.3449,0.3429,0.3488,0.3399,0.3867,0.3124,0.3003,0.3013,0.3017,0.3075,0.3081,0.3085,0.3087,0.309,0.2052,0.2077,0.2155,0.2239,0.2318,0.2392,0.2431,0.2558,0.2689,0.2821,0.3005,0.3049,0.3118,0.3003,0.2969,0.2959,0.3159,0.3031,0.3051,0.3076,0.2888,0.2759,0.2754,0.2758,0.2761,0.2763,0.2766,0,0.1939,0.1984,0.204,0.2127,0.2151,0.2264,0.2367,0.2371,0.2447,0.2561,0.2634,0.2415,0.2392,0.2522,0.241,0.2399,0.2385,0.2329,0.2304,0.2359,0.2409,0.2184,0.1867,0.1864,0.1861,0.1859,0,0,0.1875,0.1884,0.1928,0.1938,0.1997,0.2011,0.2045,0.207,0.2134,0.2062,0.2052,0.2161,0.2374,0.2032,0.2028,0.1947,0.2129,0.1875,0.2598,0.262,0.2665,0.2819,0.2535,0,0,0,0,0]},{"header":{"parameterUnit":"m.s-1","parameterCategory":2,"la1":30.2991,"la2":30.254,"lo1":-89.0895,"lo2":-89.0444,"dy":0.0017,"dx":0.0017,"nx":28,"ny":28,"refTime":"2025-07-19T03:00:00:Z","depth":"2","parameterNumber":3,"parameterNumberName":"V-component_of_CURRENTS"},"data":[0,0,0,0,0,0,0,0,0,0,0,0,0,0,0,0,0,0,0,0,0,0,0,0,0,0,0,0,0,0,0,0,0,0,0,0,0,0,0,0,0,0,0,0,0,0,0,0,0,0,0,0,0,0,0,0,0,0,0.0174,0.0173,0,0.0117,0.0116,0.0115,-0.0014,-0.0016,-0.0019,-0.0021,-0.0116,-0.0117,-0.0117,0,0,0,0,0,0,0,0,0,0,0,0,0,0.0131,0.0132,0.0174,0.0173,0.0173,0.0117,0.0116,0.0115,-0.0014,-0.0016,-0.0019,-0.0022,-0.0116,-0.0117,-0.0117,0,0,0,0,0,0,0,0,0,0,0,0,0,0.0116,0.0132,0.0174,0.0105,0.0098,0.0117,0.0116,0.0114,-0.0013,-0.0017,-0.002,-0.0023,-0.0116,-0.0117,-0.0117,-0.0051,0,0,-0.0119,-0.0119,0,0,0,0,0,0,0,0,0.0117,0.0117,0.0115,0.0109,0.0102,0.0058,0.0066,0.0058,-0.0012,0.0026,-0.0021,-0.0025,-0.0057,-0.0062,-0.007,-0.0055,-0.0059,-0.0119,-0.0119,-0.0119,-0.012,0,0,0,0,0,0,0,0.0118,0.0119,0.0147,0.0115,0.0107,0.0063,0.0057,0.0063,0.0001,0.0022,0.0013,0.0014,-0.0062,-0.0069,-0.0073,-0.0061,-0.0119,-0.0119,-0.012,-0.012,-0.0109,-0.0109,0,0,0,0,0,0,0.0139,0.0121,0.0149,0.0146,0.0105,0.0067,0.006,0.0073,0.0002,-0.0011,0.0017,0.0008,-0.0066,-0.0072,-0.0077,-0.0107,-0.0119,-0.012,-0.012,-0.011,-0.0109,-0.0108,0,0,0,0,0,0,0.0138,0.0143,0.0152,0.0133,0.0132,0.0072,0.0087,0.0074,0.0046,-0.0001,-0.0016,0.0,-0.0069,-0.0076,-0.0086,-0.0108,-0.012,-0.0121,-0.0111,-0.011,-0.0109,-0.0099,0,0,0,0,0,0,0.0138,0.0143,0.0155,0.0136,0.0134,0.0152,0.009,0.0075,0.0054,0.0041,-0.0019,-0.0031,-0.0072,-0.0084,-0.0086,-0.0109,-0.0121,-0.0111,-0.011,-0.0109,-0.0101,-0.0098,-0.0096,0,0,0,0,0,0.0137,0.0172,0.0157,0.0159,0.0154,0.0153,0.0148,0.009,0.0057,0.0051,0.0011,-0.003,-0.008,-0.0083,-0.0086,-0.0109,-0.0112,-0.011,-0.0109,-0.0101,-0.0099,-0.0097,0,0,0,0,0,0,0.0166,0.0163,0.0144,0.0178,0.0161,0.0132,0.0127,0.01,0.0066,0.0047,-0.0004,-0.0017,-0.0043,-0.0055,-0.0058,-0.0101,-0.0108,-0.0107,-0.0102,-0.0099,-0.0097,-0.0091,-0.0122,0,0,0,0,0,0.0183,0.0197,0.0187,0.021,0.0205,0.017,0.0162,0.0126,0.01,0.0078,0.0042,0.0003,-0.003,-0.0049,-0.0072,-0.0071,-0.0089,-0.0091,-0.0089,-0.0088,-0.0083,-0.0117,-0.0119,-0.0104,-0.0104,-0.0104,0,0,0.0195,0.0201,0.0204,0.0215,0.0195,0.0193,0.0153,0.0144,0.0128,0.0081,0.0052,0.0016,-0.0025,-0.0051,-0.0064,-0.007,-0.0099,-0.0086,-0.0085,-0.008,-0.0116,-0.0118,-0.012,-0.0103,-0.0103,-0.0103,0,0,0.0224,0.0238,0.0247,0.0245,0.023,0.0212,0.0213,0.0185,0.0152,0.0139,0.0085,0.0048,0.0015,-0.0031,-0.0057,-0.0042,-0.0085,-0.0057,-0.0048,-0.0082,-0.0084,-0.0086,-0.0106,-0.011,-0.006,-0.006,-0.006,0,0.0231,0.0255,0.0249,0.026,0.0257,0.0224,0.0226,0.0206,0.0174,0.016,0.0125,0.006,0.0018,-0.0021,-0.0039,-0.0042,-0.0061,-0.006,-0.0081,-0.0083,-0.0086,-0.0106,-0.0111,-0.0059,-0.0059,-0.0059,-0.0059,0,0.0263,0.0276,0.0287,0.0284,0.0283,0.0286,0.0262,0.0252,0.0214,0.0185,0.0142,0.0088,0.0044,0.0016,-0.0016,-0.0053,-0.0061,-0.0075,-0.0092,-0.0087,-0.0108,-0.0113,-0.0058,-0.0059,-0.0059,-0.0059,0,0,0.0285,0.03,0.03,0.0304,0.0296,0.0303,0.029,0.0272,0.0274,0.0213,0.0203,0.0114,0.008,0.0052,0.0005,-0.0035,-0.008,-0.0065,-0.0067,-0.0092,-0.0149,-0.0204,-0.0215,-0.0105,-0.0105,-0.0106,-0.0157,0,0.0298,0.0326,0.0325,0.034,0.0352,0.0332,0.0333,0.0314,0.0289,0.0281,0.0202,0.0178,0.0095,0.0078,0.0016,-0.0036,-0.0093,-0.0064,-0.0143,-0.0145,-0.0201,-0.0222,-0.0202,-0.0251,-0.0162,-0.0163,-0.0164,0,0.0322,0.034,0.0356,0.0378,0.038,0.0382,0.039,0.0391,0.037,0.0352,0.03,0.0256,0.0188,0.0124,-0.0003,0.0019,-0.0074,-0.0129,-0.0132,-0.019,-0.021,-0.0241,-0.0263,-0.0172,-0.0171,-0.0171,-0.017,0,0.0346,0.0365,0.0378,0.0385,0.0401,0.0401,0.0407,0.0403,0.0437,0.0408,0.0438,0.0327,0.0311,0.0172,0.0036,0.0017,-0.0089,-0.0124,-0.0266,-0.027,-0.0271,-0.0274,-0.0234,-0.0234,-0.0234,-0.0234,-0.0234,0,0.0375,0.0391,0.039,0.0405,0.0443,0.0433,0.0478,0.0477,0.0508,0.0582,0.048,0.0523,0.0321,0.0239,0.0077,-0.0102,-0.0066,-0.027,-0.0294,-0.0266,-0.0269,-0.0212,-0.0209,-0.0236,-0.0235,-0.0235,-0.0234,0,0.0414,0.0404,0.0439,0.045,0.0458,0.0491,0.0558,0.0619,0.0621,0.0722,0.0727,0.0679,0.0559,0.0352,0.0153,-0.0023,-0.0197,-0.0277,-0.0229,-0.0249,-0.0367,-0.0362,-0.0444,-0.0447,-0.0449,-0.045,-0.0452,0,0.0444,0.0456,0.0488,0.0531,0.0538,0.0587,0.065,0.0672,0.0771,0.084,0.0925,0.0825,0.0781,0.0455,0.0123,-0.0191,-0.0216,-0.0376,-0.0435,-0.0377,-0.0392,-0.0384,-0.0376,-0.0421,-0.0422,-0.0423,-0.0424,0,0.0515,0.0512,0.0553,0.0641,0.0701,0.0794,0.0888,0.098,0.1047,0.1132,0.124,0.1195,0.0843,0.0516,0.0048,-0.0157,-0.0333,-0.0409,-0.0347,-0.0381,-0.0363,-0.0375,-0.0367,-0.0432,-0.0431,-0.0431,-0.043,-0.043,0.0582,0.0633,0.0692,0.0781,0.0869,0.1017,0.1122,0.1252,0.1413,0.1509,0.143,0.1322,0.0921,0.0291,-0.004,-0.0399,-0.041,-0.0541,-0.0534,-0.0527,-0.0526,-0.0514,-0.061,-0.061,-0.061,-0.061,-0.061,0,0.0681,0.0742,0.084,0.0964,0.1103,0.1116,0.1311,0.1433,0.1645,0.161,0.1601,0.116,0.0764,0.0348,-0.0202,-0.054,-0.0538,-0.0622,-0.0545,-0.0537,-0.053,-0.0525,-0.061,-0.0611,-0.0611,-0.0611,0,0,0.0743,0.0856,0.0908,0.1153,0.1253,0.1456,0.1577,0.1739,0.1775,0.1714,0.1562,0.1288,0.0812,0.0411,-0.003,-0.0305,-0.0334,-0.0357,-0.0332,-0.0182,-0.017,-0.0471,-0.0455,0,0,0,0,0]}],[{"header":{"parameterUnit":"m.s-1","parameterCategory":2,"la1":30.2991,"la2":30.254,"lo1":-89.0895,"lo2":-89.0444,"dy":0.0017,"dx":0.0017,"nx":28,"ny":28,"refTime":"2025-07-19T03:00:00:Z","depth":"4","parameterNumber":2,"parameterNumberName":"U-component_of_CURRENTS"},"data":[0,0,0,0,0,0,0,0,0,0,0,0,0,0,0,0,0,0,0,0,0,0,0,0,0,0,0,0,0,0,0,0,0,0,0,0,0,0,0,0,0,0,0,0,0,0,0,0,0,0,0,0,0,0,0,0,0,0,0.1071,0.1072,0,0.114,0.1141,0.1142,0.1181,0.1181,0.1181,0.1181,0.1243,0.1244,0.1245,0,0,0,0,0,0,0,0,0,0,0,0,0,0.0949,0.0952,0.1071,0.1072,0.1073,0.114,0.1141,0.1142,0.1181,0.1181,0.1181,0.1181,0.1242,0.1244,0.1245,0,0,0,0,0,0,0,0,0,0,0,0,0,0.1008,0.0952,0.1071,0.1101,0.1105,0.114,0.1141,0.1142,0.1181,0.1181,0.1181,0.1182,0.1242,0.1244,0.1246,0.1253,0,0,0.1252,0.1253,0,0,0,0,0,0,0,0,0.1005,0.1012,0.1096,0.1099,0.1103,0.1153,0.1121,0.1179,0.1181,0.1151,0.1181,0.1182,0.1212,0.1217,0.1228,0.1256,0.1258,0.1252,0.1254,0.1255,0.1255,0,0,0,0,0,0,0,0.1001,0.1009,0.1098,0.1097,0.1101,0.1103,0.1112,0.1132,0.1178,0.1154,0.1157,0.1166,0.1214,0.1226,0.123,0.1259,0.1252,0.1254,0.1256,0.1257,0.1369,0.1371,0,0,0,0,0,0,0.0995,0.1006,0.1095,0.11,0.1054,0.1105,0.1115,0.1136,0.1178,0.1185,0.1165,0.1167,0.1222,0.1227,0.1232,0.1306,0.1255,0.1257,0.1258,0.1368,0.137,0.1372,0,0,0,0,0,0,0.0992,0.1003,0.1093,0.1054,0.1066,0.1107,0.113,0.1137,0.1175,0.1187,0.1194,0.1199,0.1222,0.1229,0.1278,0.1307,0.1258,0.126,0.1366,0.1368,0.1371,0.1414,0,0,0,0,0,0,0.0989,0.1002,0.1027,0.1054,0.1068,0.1128,0.113,0.1138,0.1179,0.1183,0.1218,0.1223,0.1223,0.1274,0.128,0.1309,0.1261,0.1364,0.1367,0.137,0.1411,0.1418,0.1424,0,0,0,0,0,0.0984,0.1011,0.1029,0.104,0.1098,0.1129,0.1137,0.1165,0.1181,0.1201,0.1231,0.1223,0.1298,0.1278,0.1283,0.1314,0.1362,0.1366,0.137,0.1408,0.1417,0.1424,0,0,0,0,0,0,0.0968,0.1018,0.1038,0.1079,0.111,0.1136,0.116,0.1182,0.1223,0.1235,0.1246,0.1253,0.1298,0.1307,0.1284,0.1357,0.1329,0.1334,0.1356,0.1364,0.1371,0.1357,0.1263,0,0,0,0,0,0.0977,0.1014,0.1054,0.1087,0.1106,0.114,0.1162,0.1184,0.1217,0.1236,0.1264,0.1294,0.1315,0.1342,0.1355,0.1406,0.1408,0.143,0.1436,0.1442,0.1436,0.1498,0.151,0.1384,0.1384,0.1384,0,0,0.0981,0.1011,0.1034,0.1087,0.1113,0.1143,0.1155,0.1196,0.1227,0.1236,0.1296,0.1313,0.133,0.1375,0.1398,0.1393,0.1475,0.1447,0.1451,0.1443,0.1503,0.1515,0.1526,0.1387,0.1386,0.1386,0,0,0.0987,0.1033,0.1062,0.109,0.1138,0.1161,0.118,0.1228,0.1261,0.1314,0.1325,0.1367,0.1411,0.143,0.1443,0.15,0.1498,0.1513,0.1552,0.1613,0.1623,0.1632,0.1628,0.1637,0.1531,0.1531,0.1531,0,0.0989,0.1029,0.1073,0.1099,0.1125,0.1172,0.1201,0.1239,0.13,0.1331,0.1339,0.1418,0.1431,0.1486,0.1503,0.1513,0.1532,0.1517,0.1621,0.163,0.1639,0.1633,0.1642,0.1534,0.1534,0.1533,0.1533,0,0.1005,0.1044,0.106,0.1114,0.1151,0.1182,0.1237,0.1288,0.1333,0.1368,0.144,0.1472,0.1522,0.1536,0.1535,0.161,0.1595,0.161,0.1597,0.1654,0.1644,0.1652,0.1538,0.1537,0.1536,0.1535,0,0,0.0981,0.1059,0.1064,0.109,0.1163,0.1188,0.1256,0.132,0.1378,0.1435,0.151,0.1543,0.1577,0.1593,0.1617,0.1669,0.1733,0.1675,0.1677,0.1662,0.1835,0.1753,0.1754,0.1785,0.1787,0.1789,0.1793,0,0.0977,0.1023,0.107,0.1117,0.1146,0.1213,0.1277,0.1347,0.1416,0.1503,0.155,0.1629,0.1597,0.1654,0.1692,0.174,0.1763,0.1727,0.1787,0.1787,0.1703,0.1765,0.1797,0.1799,0.1801,0.1802,0.1803,0,0.0963,0.1002,0.1049,0.113,0.1152,0.1199,0.131,0.1377,0.1501,0.1572,0.1651,0.1695,0.1776,0.1759,0.183,0.182,0.1817,0.1834,0.1836,0.175,0.1724,0.1737,0.1819,0.1817,0.1816,0.1815,0.1814,0,0.0904,0.0977,0.1015,0.1038,0.1146,0.1196,0.1272,0.1398,0.147,0.164,0.1711,0.1802,0.1876,0.1908,0.1917,0.1901,0.1989,0.1972,0.1873,0.1865,0.1914,0.1904,0.2002,0.2002,0.2002,0.2002,0.2002,0,0.0862,0.0891,0.0996,0.1013,0.1086,0.1181,0.1275,0.1387,0.1539,0.1621,0.1749,0.1818,0.1926,0.1972,0.1961,0.1943,0.2021,0.1877,0.1876,0.1928,0.192,0.1918,0.1908,0.2002,0.2002,0.2002,0.2002,0,0.0784,0.085,0.0894,0.1011,0.1057,0.1116,0.1271,0.1342,0.1513,0.1633,0.1698,0.1858,0.1943,0.1994,0.2065,0.1992,0.1998,0.1959,0.1986,0.1987,0.1807,0.18,0.1846,0.1844,0.1842,0.184,0.1838,0,0.0743,0.0761,0.0874,0.0915,0.0973,0.1073,0.1151,0.1328,0.1409,0.1617,0.1668,0.1812,0.1889,0.1912,0.1989,0.199,0.1956,0.1927,0.1872,0.1804,0.18,0.1795,0.1791,0.1835,0.1835,0.1834,0.1833,0,0.0663,0.071,0.075,0.0843,0.092,0.0989,0.1115,0.1163,0.1358,0.1501,0.1611,0.1676,0.1771,0.1843,0.188,0.1862,0.1948,0.1904,0.1907,0.1855,0.1791,0.1788,0.1786,0.1826,0.1827,0.1828,0.1828,0,0.06,0.0611,0.0676,0.0754,0.084,0.0899,0.097,0.1075,0.1175,0.1417,0.1433,0.1597,0.1737,0.1774,0.1795,0.181,0.1767,0.1689,0.1702,0.1711,0.1673,0.1573,0.1546,0,0,0,0,0,0.0533,0.0549,0.0595,0.0674,0.0756,0.0811,0.0946,0.1023,0.1193,0.1235,0.1341,0.1425,0.1517,0.1605,0.1592,0.1723,0.1762,0.17,0.1673,0.1786,0.1794,0.1767,0,0,0,0,0,0,0.0496,0.0526,0.0551,0.0587,0.0633,0.0713,0.0789,0.0904,0.0949,0.1128,0.1194,0.1327,0.1443,0.1504,0.1559,0.1584,0.1536,0.1804,0.1801,0.1781,0.1789,0.1795,0.1771,0,0,0,0,0]},{"header":{"parameterUnit":"m.s-1","parameterCategory":2,"la1":30.2991,"la2":30.254,"lo1":-89.0895,"lo2":-89.0444,"dy":0.0017,"dx":0.0017,"nx":28,"ny":28,"refTime":"2025-07-19T03:00:00:Z","depth":"4","parameterNumber":3,"parameterNumberName":"V-component_of_CURRENTS"},"data":[0,0,0,0,0,0,0,0,0,0,0,0,0,0,0,0,0,0,0,0,0,0,0,0,0,0,0,0,0,0,0,0,0,0,0,0,0,0,0,0,0,0,0,0,0,0,0,0,0,0,0,0,0,0,0,0,0,0,0.0256,0.0255,0,0.0221,0.0221,0.022,0.0203,0.0203,0.0203,0.0203,0.0172,0.0172,0.0171,0,0,0,0,0,0,0,0,0,0,0,0,0,0.0273,0.0273,0.0256,0.0255,0.0255,0.0221,0.0221,0.022,0.0203,0.0203,0.0203,0.0203,0.0173,0.0172,0.0171,0,0,0,0,0,0,0,0,0,0,0,0,0,0.0254,0.0273,0.0256,0.0243,0.0241,0.0221,0.0221,0.022,0.0203,0.0203,0.0203,0.0203,0.0173,0.0172,0.0171,0.0162,0,0,0.0167,0.0166,0,0,0,0,0,0,0,0,0.0256,0.0254,0.0245,0.0243,0.0242,0.0217,0.0216,0.0201,0.0203,0.0217,0.0203,0.0203,0.0188,0.0185,0.0178,0.016,0.0159,0.0167,0.0166,0.0165,0.0165,0,0,0,0,0,0,0,0.0257,0.0255,0.0242,0.0245,0.0243,0.0227,0.0224,0.0212,0.0202,0.0215,0.0214,0.0211,0.0187,0.0179,0.0177,0.0159,0.0167,0.0166,0.0165,0.0164,0.0138,0.0138,0,0,0,0,0,0,0.0264,0.0256,0.0243,0.0241,0.0249,0.0227,0.0224,0.0224,0.0202,0.0199,0.0211,0.021,0.0181,0.0179,0.0176,0.0186,0.0165,0.0164,0.0163,0.0137,0.0138,0.0138,0,0,0,0,0,0,0.0264,0.0263,0.0244,0.0248,0.0244,0.0227,0.0227,0.0224,0.0222,0.0199,0.0196,0.0213,0.0181,0.0178,0.017,0.0184,0.0164,0.0162,0.0137,0.0137,0.0138,0.0192,0,0,0,0,0,0,0.0265,0.0264,0.0268,0.0248,0.0244,0.0242,0.0227,0.0223,0.0219,0.0218,0.02,0.0196,0.0181,0.0172,0.0169,0.0182,0.0161,0.0137,0.0137,0.0138,0.019,0.0194,0.0197,0,0,0,0,0,0.0266,0.0275,0.0269,0.0267,0.0251,0.0242,0.0239,0.0226,0.022,0.0223,0.0208,0.0197,0.017,0.0171,0.0168,0.018,0.0137,0.0137,0.0138,0.0189,0.0193,0.0197,0,0,0,0,0,0,0.0285,0.0274,0.0267,0.0272,0.0261,0.024,0.0242,0.0231,0.0221,0.0222,0.0199,0.0194,0.0193,0.0175,0.0177,0.0171,0.0152,0.0151,0.0192,0.0196,0.02,0.0201,0.016,0,0,0,0,0,0.0292,0.0296,0.028,0.0284,0.0282,0.0263,0.0258,0.0249,0.0236,0.0232,0.0217,0.02,0.0189,0.0184,0.017,0.0168,0.0115,0.0172,0.0175,0.0179,0.0175,0.0107,0.0104,0.0138,0.0138,0.0138,0,0,0.03,0.0294,0.0297,0.0288,0.028,0.0286,0.026,0.0259,0.0266,0.023,0.0236,0.0213,0.019,0.0188,0.0186,0.0177,0.0138,0.0179,0.0182,0.0176,0.0107,0.0103,0.01,0.0138,0.0138,0.0138,0,0,0.0322,0.0315,0.0328,0.0323,0.0315,0.0305,0.0308,0.0292,0.0288,0.0285,0.0262,0.0243,0.0229,0.0212,0.0202,0.0214,0.0158,0.0213,0.0235,0.0169,0.0165,0.0162,0.0076,0.0064,0.0216,0.0216,0.0216,0,0.0333,0.0346,0.033,0.0341,0.0342,0.0319,0.0334,0.0328,0.0311,0.0301,0.0295,0.0251,0.0239,0.0224,0.0233,0.0223,0.0166,0.0225,0.0173,0.0169,0.0164,0.0077,0.0063,0.0219,0.0219,0.0218,0.0218,0,0.0363,0.0375,0.0383,0.0391,0.039,0.0399,0.0388,0.0386,0.0374,0.0355,0.0333,0.0303,0.0272,0.0271,0.0261,0.0228,0.019,0.0185,0.0164,0.0164,0.0072,0.0057,0.0223,0.0222,0.0221,0.022,0,0,0.0379,0.0401,0.0404,0.0416,0.0418,0.0419,0.0432,0.0424,0.0417,0.0395,0.0372,0.0357,0.0321,0.0307,0.0283,0.0236,0.0159,0.0204,0.0199,0.0121,-0.0011,0.0012,-0.0004,0.0143,0.0141,0.014,-0.0067,0,0.0406,0.0443,0.0445,0.0476,0.0491,0.0477,0.0486,0.0474,0.0451,0.0421,0.0378,0.035,0.0342,0.0321,0.0275,0.0187,0.0123,0.0214,-0.0001,-0.0008,0.0015,-0.0018,0.0134,-0.0079,-0.0082,-0.0085,-0.0087,0,0.043,0.0453,0.0494,0.0513,0.0517,0.0533,0.0525,0.053,0.0485,0.0462,0.0417,0.0369,0.0305,0.0296,0.0135,0.019,0.0095,0.0023,0.0013,0.0006,-0.0013,-0.0077,-0.0115,-0.0113,-0.0111,-0.0109,-0.0107,0,0.0441,0.0481,0.0516,0.0525,0.0545,0.0557,0.0566,0.054,0.0532,0.0481,0.0445,0.0363,0.0304,0.0189,0.0056,0.0082,-0.0143,-0.013,-0.0209,-0.0211,-0.0194,-0.0188,-0.0259,-0.0259,-0.0259,-0.0258,-0.0257,0,0.0458,0.0482,0.0527,0.0544,0.0573,0.0581,0.0589,0.0583,0.0553,0.053,0.0466,0.0415,0.0273,0.0136,0.0026,-0.0144,-0.0176,-0.0223,-0.0261,-0.0168,-0.0156,-0.0206,-0.0197,-0.0266,-0.0264,-0.0263,-0.0261,0,0.045,0.0485,0.0522,0.0564,0.0579,0.0598,0.0614,0.061,0.0586,0.0549,0.053,0.0418,0.0258,0.0097,-0.0115,-0.0188,-0.0346,-0.0401,-0.0319,-0.0347,-0.037,-0.0355,-0.0517,-0.0518,-0.0518,-0.0519,-0.0519,0,0.0443,0.0467,0.0532,0.0555,0.0577,0.0606,0.0621,0.0627,0.0624,0.0553,0.0533,0.0376,0.0288,-0.0009,-0.0158,-0.0398,-0.0407,-0.0509,-0.0404,-0.0374,-0.0396,-0.038,-0.0366,-0.0521,-0.0521,-0.0521,-0.0521,0,0.0421,0.0452,0.0482,0.0542,0.0577,0.0605,0.0635,0.0637,0.0632,0.0606,0.0522,0.0381,0.0191,0.0001,-0.0199,-0.0354,-0.0446,-0.0517,-0.0515,-0.0417,-0.0381,-0.0398,-0.0383,-0.0524,-0.0523,-0.0523,-0.0523,0,0.0396,0.0412,0.0464,0.0512,0.0556,0.0593,0.0614,0.0616,0.0615,0.0569,0.0537,0.0356,0.0253,0.0019,-0.0156,-0.0314,-0.0329,-0.0359,-0.0366,-0.0365,-0.023,-0.0157,-0.0279,0,0,0,0,0,0.0368,0.039,0.0429,0.0489,0.0536,0.0569,0.0612,0.0631,0.0637,0.059,0.0572,0.0413,0.0166,0.0055,-0.0098,-0.0171,-0.0368,-0.0355,-0.0408,-0.0538,-0.0535,-0.0396,0,0,0,0,0,0,0.0349,0.0384,0.0413,0.0457,0.0497,0.0549,0.0581,0.0594,0.0578,0.0567,0.0441,0.0386,0.0145,0.0252,-0.0099,-0.0148,-0.0199,-0.0468,-0.0471,-0.054,-0.0537,-0.0535,-0.0391,0,0,0,0,0]}]]